Location: A�t Lahcen
(32.8243°N, 5.4246°W)
Time: 01:01:57
(UTC+00:00)

ERS-2 - Pass Details

Date: 27 January 2021
Orbit: 492 x 497 km, 98.6° (Epoch: 27 February)

Event Time Altitude Azimuth Distance (km) Brightness Sun altitude
Rises 05:16:00 0° 138° (SE) 2,570 6.4 -26.0°
Reaches altitude 10° 05:18:23 10° 123° (ESE) 1,690 5.6 -25.5°
Maximum altitude 05:21:14 22° 71° (ENE) 1,117 4.5 -24.9°
Drops below altitude 10° 05:24:06 10° 19° (NNE) 1,697 4.9 -24.3°
Enters shadow 05:25:03 - 11° (N) 2,029 5.3 -24.1°
